DELTA 1 DEB, 21542

Orbit data source: Space-Track

DELTA 1 DEB, 21542 is space debris in SSO originally from a launch on Thu, 12 Jun 1975 UTC launched from the Air Force Western Test Range (AFWTR). Debris objects in space refer to the collection of defunct objects orbiting the Earth. Examples of debris include non-operational satellites, rocket bodies, and fragments generated from explosions, collisions, or faulty payload assembly.

Loading next visibility...
Identifier
21542, 1975-052GW
Orbit
SSO
Country
Flag of USUS
Related business
Manufacturer
Unknown
Mission
Spacecraft
Bus & Motor
Unknown
Mass
Unknown
Launch date (UTC)
1975-06-12 (51 years ago)
Launch vehicle
Unknown
Launch site
Air Force Western Test Range (AFWTR)
Object type
Payload
Rocket body
Debris
Shape & HBR
Unknown shape, 0.1 m
Radar Cross Section
Small (<0.1 m²)

Expand to show TLE details & history
Last TLE update: 2 days ago

TLE from 2 days ago
0 DELTA 1 DEB
1 21542U 75052GW  26171.34204343  .00000126  00000-0  32206-3 0  9998
2 21542 100.2803  52.7340 0051060  11.8707  40.2312 13.38554308713493
Epoch: 2026-06-20T08:12Z
TLE epoch observation values (Epoch: 2026-06-20T08:12:32.552Z)
Latitude
51.39751°
Longitude
7.97749°
Altitude
1,093.693 km
Speed
7.324 km/s
True Right ascension
02h 38m 41s
True Declination
51° 14' 14"
Sunlit
Object was in daylight at epoch
Visualization orbit readout
Latitude
Unknown
Longitude
Unknown
Altitude
Unknown
Speed
Unknown
Apparent Right ascension
Unknown
Apparent Declination
Unknown
Sunlit
N/A
Visualization observer readout
Local Sidereal Time
17:38:27
Azimuth
Unknown
Elevation
Unknown
Doppler factor
Unknown
Orbital elements
Apogee altitude
1,150.261 km
Perigee altitude
1,073.772 km
Semi-major axis
7,490.153 km
Eccentricity
0.00511
Inclination
100.2803°
RAAN
52.734°
Arg. of periapsis
11.8707°
True anomaly
40.61095°
Mean anomaly
40.2312°
Eccentric anomaly
40.42089°
Mean motion
3.34817 °/min
Orbital period
107.52 mins
BSTAR
0.00032206
Loading maneuver chart data...
Computing Atmospheric mass density...
Loading historical data...
Loading historical data...
Loading historical data...
Loading historical data...
Loading historical data...
Loading historical data...
Loading historical data...

Documentation

Showing up to 5 results
|